ONEWEB-0062, 45163

Orbit data source: Space-Track

ONEWEB-0062, 45163 is a payload satellite owned by One Web (UK) in LEO that was launched on Thu, 06 Feb 2020 UTC via a SOYUZ-2-1B launch vehicle from the Tyuratam Missile And Space Complex (TTMTR). Payload-class satellites include a variety of spacecraft equipped with specific instruments for various scientific and technological missions. These include communications satellites like Starlink; space stations such as the ISS; scientific satellites like the Hubble; Earth observation satellites from companies like Planet Labs, Umbra, and HawkEye 360; GPS; miniature CubeSats for education and research; and military/defense satellites.

Loading next visibility...
Identifier
45163, 2020-008AJ
Orbit
LEO
Last TLE update
22 hours ago
Origin
Manufacturer
One Web
Mission
Operational Commercial Communications
Bus & Motor
ARROW, Unknown motor
Mass
148 kg wet, ~140 kg dry
Launch date (UTC)
2020-02-06 (5 years ago)
Launch vehicle
SOYUZ-2-1B
Launch site
Tyuratam Missile And Space Complex (TTMTR)
Object type
Payload
Rocket body
Debris
Shape & HBR
Trap Box + 2 Pan, 5 m
Radar Cross Section
2.957 m², Large (>1 m²)

Expand to show TLE details & history

TLE from 22 hours ago
0 ONEWEB-0062
1 45163U 20008AJ  25128.46184416 -.00000513  00000-0 -15055-2 0  9990
2 45163  87.8794 116.9607 0001952  97.5787 262.5562 13.10376023255189
Epoch: 2025-05-08T11:05Z
Definitive object data (Epoch: 2025-05-08T11:05:03.335Z)
Latitude
-0.00003°
Longitude
84.1648°
Altitude
1,224.785 km
Speed
7.242 km/s
True Right ascension
07h 47m 50s
True Declination
0° 00' 00"
Sunlit
Object was in daylight at TLE epoch
Visualization TLE readout
Latitude
5.74059°
Longitude
84.19409°
Altitude
1,224.017 km
Speed
7.243 km/s
Apparent Right ascension
06h 48m 38s
Apparent Declination
-15° 40' 30"
Sunlit
Object is in daylight
Visualization observer readout
Local Sidereal Time
17:15:31
Azimuth
313.436° NW
Elevation
-58.398°
Doppler factor
1
Orbital elements
Apogee altitude
1,220.308 km
Perigee altitude
1,217.342 km
Semi-major axis
7,596.962 km
Eccentricity
0.0001952
Inclination
87.8794°
RAAN
116.9607°
Arg. of periapsis
97.5787°
True anomaly
262.53402°
Mean anomaly
262.5562°
Eccentric anomaly
262.54511°
Mean motion
3.27781 °/min
BSTAR
-0.0015055
Orbital period
109.83 mins
Loading maneuver chart data...
Loading SW <> Apogee altitude chart data...
Loading historical data...
Loading historical data...
Loading historical data...
Loading historical data...
Loading historical data...
Loading historical data...
Loading historical data...

ONEWEB-0062 Visibility forecast

Observer location: undefined°, undefined°

Span
Click to sort rows by Start time (UTC) header in descending order
Start Az.
Max El. time (UTC)
Max El. Az.
Max El.
End time (UTC)
End Az.
8 mins2025-05-09 09:42:15.294Z37.346° NE2025-05-09 09:46:15.294Z72.053° E16.385°2025-05-09 09:50:15.294Z107.303° ESE
13 mins2025-05-09 11:31:15.294Z356.864° N2025-05-09 11:37:15.294Z262.117° W44.695°2025-05-09 11:44:15.294Z185.772° SSW
4 mins2025-05-09 13:24:15.294Z304.377° NW2025-05-09 13:26:15.294Z287.219° WNW12.792°2025-05-09 13:28:15.294Z270.49° WNW
7 mins2025-05-09 22:04:15.294Z102.004° ESE2025-05-09 22:07:15.294Z72.893° E18.538°2025-05-09 22:11:15.294Z36.711° NE
13 mins2025-05-09 23:50:15.294Z188.427° SSW2025-05-09 23:56:15.294Z267.111° W43.757°2025-05-10 00:03:15.294Z356.431° N
|